Regional Weather Roundup
Issued by NWS Northern Indiana

Home | Current Version | Previous Version | Graphics & Text | Print | Product List | Glossary On
Versions: 1 2 3 4 5 6 7 8 9 10 11 12 13 14 15 16 17 18 19 20 21 22 23 24 25 26 27 28 29 30 31 32 33 34 35 36 37 38 39 40 41 42 43 44 45 46 47 48 49 50
000
ASUS43 KIWX 260400
RWRIWX

KIWX WEATHER ROUNDUP
NATIONAL WEATHER SERVICE NORTHERN INDIANA
1200 AM EDT THU MAY 26 2016

NOTE: "FAIR" INDICATES FEW OR NO CLOUDS BELOW 12,000 FEET WITH NO
SIGNIFICANT WEATHER AND/OR OBSTRUCTIONS TO VISIBILITY.

* THESE STATIONS ARE NOT UNDER NWS QUALITY CONTROL. THEY ALSO MAY NOT
  REPORT WEATHER SUCH AS PRECIPITATION OR FOG.

INZ001>027-260500-
NORTHERN INDIANA

CITY           SKY/WX    TMP DP  RH WIND       PRES   REMARKS
SOUTH BEND     CLOUDY    68  62  81 CALM      29.99R
GOSHEN         CLOUDY    74  61  63 SW9       29.98R
ANGOLA*        MOCLDY    70  63  78 S3        29.99R
FORT WAYNE     CLOUDY    75  62  64 SW12      30.00F

$$
INZ028>050-260500-
CENTRAL INDIANA

CITY           SKY/WX    TMP DP  RH WIND       PRES   REMARKS
LAFAYETTE      CLOUDY    71  62  73 S6        29.99F
KOKOMO*        CLOUDY    72  59  64 SW10      30.01S
MUNCIE*        CLOUDY    75  62  64 S9G22     30.02F
INDIANAPOLIS   CLOUDY    72  62  71 SW14      30.02S

$$
MIZ043>046-050>051-056>058-064>065-071>073-077>080-260500-
SOUTHWEST LOWER MICHIGAN

CITY           SKY/WX    TMP DP  RH WIND       PRES   REMARKS
BATTLE CREEK   CLOUDY    73  61  65 W8        29.98R
BENTON HARBOR  LGT RAIN  64  63  96 VRB5      29.99R
COLDWATER*     MOCLDY    75  59  56 S3        29.97S
HILLSDALE*     PTCLDY    71  54  54 S6        29.99S
HOLLAND        RAIN      65  61  87 SW17      30.03R
GRAND RAPIDS   CLOUDY    73  60  63 W8        29.97R
KALAMAZOO      CLOUDY    72  61  68 W16       29.99R THUNDER
STURGIS*       CLOUDY    74  61  65 SW8       29.97R
THREE RIVERS*  MOCLDY    71  66  86 NW9       29.98R

$$
OHZ001>008-015>018-024>025-260500-
NORTHWEST OHIO

CITY           SKY/WX    TMP DP  RH WIND       PRES   REMARKS
DEFIANCE       CLEAR     76  60  57 S10       29.99F
FINDLAY        CLEAR     71  58  63 S10       30.02F
TOLEDO EXPRESS PTCLDY    73  59  61 S7        29.99F
TOLEDO METCALF PTCLDY    73  58  59 S12       30.01F
LIMA           CLEAR     70  61  73 S7        30.03F

$$
AND FOR LAKE MICHIGAN COASTAL AND OPEN LAKE BUOY OBSERVATIONS

STATION/POSITION TEMP    WIND        PRES    VSBY  WAVE
                 AIR SEA DIR/SP/G                  HT/PER
                 (F)     (DEG/KT/KT) (MB)    (MI)  (FT/S)
CALUMET HARBOR    62                   N/A
MICHIGAN CITY     64     150/  3/  4   N/A
BURNS HARBOR      60     340/  9/ 24 1015.9R
SAINT JOSEPH      62      50/  3/  8 1016.3R
SOUTH LAKE BUOY   57 50  170/ 14/ 16 1014.1          1/ 3
4 MI NW BRIDGMAN  61 59   50/  8/ 10   N/A           2/ 3
MICHIGAN CITY     60 60   20/  6/ 19   N/A           1/ 2

$$
&&



USA.gov is the U.S. government's official web portal to all federal, state and local government web resources and services.